"Pseudo-MPEC" for C0QM372

Created 2019 Jun 19 17:07:17 UT using Find_Orb

Click here for an explanation of pseudo-MPECs

 
 Astrometry: 
     C0QM372  C2019 06 04.38597 20 35 25.69 +06 07 13.0    ~64A7 20.3 GVNEOCPG96
     C0QM372  C2019 06 04.39904 20 35 34.56 +06 05 04.6    ~64A7 20.3 GVNEOCPG96
     C0QM372  C2019 06 04.40557 20 35 38.98 +06 04 01.0    ~64A7 20.5 GVNEOCPG96
     C0QM372  C2019 06 04.45366 20 36 11.61 +05 56 07.0    ~64BM       VNEOCPI52
     C0QM372  C2019 06 04.45465 20 36 12.27 +05 55 57.3    ~64BM       VNEOCPI52
     C0QM372  C2019 06 04.45563 20 36 12.95 +05 55 47.2    ~64BM 19.7 GVNEOCPI52
     C0QM372 KC2019 06 05#*Zfp_50]Hw.n);X'PNd?Fih(ig!AstrometryLQXVeD'J4kb\hpL01
     C0QM372 KC2019 06 05b7yWoZ.DE'jhoLW7']h_nS]uXqf@S/jpCMo#5m7D2cU#j9E)-xg\L01
     C0QM372 pC2019 06 050^Pl1@e=i[A%(wu@v-]Qd(j/1Q.R3r76I]!CygaB\G^3wXc*;ID_L01
     C0QM372 pC2019 06 05X/k@b$9SnjJ9ikT1Gj3+$0dgn\=$vvggp)k/6:Kd?IUs[dHaBXKcL01
     C0QM372  C2019 06 05.34369 20 47 28.27 +03 18 11.3    ~6597       VNEOCPI52
     C0QM372  C2019 06 05.34460 20 47 28.99 +03 18 01.5    ~6597 19.8 GVNEOCPI52
     C0QM372  C2019 06 05.34550 20 47 29.71 +03 17 51.6    ~6597 19.1 GVNEOCPI52
     C0QM372  C2019 06 05.34640 20 47 30.39 +03 17 40.5    ~6597 19.4 GVNEOCPI52
     C0QM372 KC2019 06 06+Dcvt+cjh.T%HY_fx/uLDQjl92$O*$)(g%VLh!;QUredacted;tyZ84
     C0QM372 KC2019 06 0643fgBa9@m)2,o6JxuN(#p-ZvP[k'jeZXSEu8/u(;j??CnHKq2+n@Z84
     C0QM372 KC2019 06 06`Cd%XCXXh.t[J]V,xG%rDs@oE8[*,xKlA5rS2P2!^`6bclickDlIZ84
     C0QM372 KC2019 06 06vmNn7H4,GhQ3fVYalQo$\'Y@Ao]?b,U4dm6SS]Yu5l;kLW7WLp9-J04
     C0QM372 KC2019 06 06)4NyKn;1dJENq\'%?;.aTheregMkEy;8,E4xQ\9bF=forbOiD0n=J04
     C0QM372 KC2019 06 06KH3Zk%yjA8P@r?J!1f(N+qr;ejA4p.R*.Dcbh*Texplanations$J04
     C0QM372  C2019 06 06.37606 21 02 21.79 -00 14 58.2    ~669b 19.6 GVNEOCPI52
     C0QM372  C2019 06 06.37752 21 02 23.12 -00 15 17.2    ~669b 19.8 GVNEOCPI52
     C0QM372  C2019 06 06.37824 21 02 23.74 -00 15 27.1    ~669b 20.2 GVNEOCPI52
     C0QM372 KC2019 06 06L8vPm-=I6kTapMbk;XyGaE%I4dWah*SeZFLQJbC$$;NQ#?F5mQZ9711
     C0QM372 KC2019 06 06V)'@;h/yuNYAek=bJA#xLZrrojeFJX._wI'`H4[x4FC+.mLeFREr711
     C0QM372 KC2019 06 06J:bj`3H=Ab:DClhMxVNub6ChiAG;k#5Vj8seg/wAUwc]O@1K(!nJ711
     C0QM372  C2019 06 07.34484 21 18 31.71 -04 07 14.2    ~678b 19.8 GVNEOCPI52
     C0QM372  C2019 06 07.34540 21 18 32.25 -04 07 22.8    ~678b 19.9 GVNEOCPI52
     C0QM372  C2019 06 07.34596 21 18 32.87 -04 07 31.5    ~678b 19.6 GVNEOCPI52
     C0QM372  C2019 06 07.34652 21 18 33.43 -04 07 40.5    ~678b 19.5 GVNEOCPI52
     C0QM372 pC2019 06 08#7k%R7u/Q%erFOpB*m+AwKRH-.pX1-#j9neHuq9vB2vK\UOJQLu)L01
     C0QM372 pC2019 06 08N)kD;#+Gx3gGb^#!4E3dpo)ySW%(:.e,Rc8yd6fQ7Ni;OW:=BefKL01
     C0QM372  C2019 06 09.42695 22 01 51.42 -14 10 46.7    ~69Ab 19.6 GVNEOCPI52
     C0QM372  C2019 06 09.42750 22 01 52.23 -14 10 57.1    ~69Ab 20.2 GVNEOCPI52
     C0QM372  C2019 06 09.42806 22 01 53.01 -14 11 07.3    ~69Ab 19.4 GVNEOCPI52
     C0QM372  C2019 06 11.45059 22 57 03.47 -25 11 37.5    ~6BB7 22.7 GVNEOCPI52
     C0QM372  C2019 06 11.45150 22 57 05.02 -25 11 55.3    ~6BB7       VNEOCPI52

Station data:
(711) McDonald Observatory, Fort Davis  (N30.671481 W104.021500)  US/Texas.
   0.76-m f/3.0 reflector.
(G96) Mt. Lemmon Survey  (N32.442754 W110.788720)  US/Arizona.  Observers T.
   A. Pruyne, B. M. Africano, E. J. Christensen, G. A. Farneth, D. C. Fuls,
   A. R. Gibbs, A. D. Grauer, H. Groeller, J. A. Johnson, R. A. Kowalski, S.
   M. Larson, G. J. Leonard, R. L. Seaman, F. C. Shelly. 1.5-m reflector +
   10K CCD.
(I52) Steward Observatory, Mt. Lemmon Station  (N32.442547 W110.788920)
   US/Arizona.  Observers T. A. Pruyne, B. M. Africano, E. J. Christensen, G.
   A. Farneth, D. C. Fuls, A. R. Gibbs, A. D. Grauer, H. Groeller, J. A.
   Johnson, R. A. Kowalski, S. M. Larson, G. J. Leonard, R. L. Seaman, F. C.
   Shelly. 1.0-m reflector + CCD.
(J04) ESA Optical Ground Station, Tenerife  (N28.300924 W16.511830)  Canary
   Islands (Spain).  Observer D. Abreu. Measurers M. Micheli, D. Koschny, E.
   Schwab, M. Busch, A. Knöfel. 1.0-m f/4.4 reflector + CCD.
(L01) Višnjan Observatory, Tičan  (N45.290900 E13.749300)  Croatia.
   Observers K. Korlević, E. Pettarin. Measurer E. Pettarin. 1.0-m f/2.9
   reflector + CCD.
(Z84) Calar Alto-Schmidt  (N37.224049 W2.548210)  Spain.

Orbital elements:  C0QM372
   Perihelion 2019 Aug 10.205191 +/- 5.01 TT =  4:55:28 (JD 2458705.705191)
Epoch 2019 Jun 11.0 TT = JDT 2458645.5   Earth MOID: 0.0226   AutoNEOCP
M 314.67587453 +/- 7                (J2000 ecliptic)
n   0.75282753 +/- 0.0592           Peri.  252.87773 +/- 5.1
a   1.19675628 +/- 0.0636           Node    81.18810 +/- 0.30
e   0.2549059 +/- 0.0364            Incl.   26.74246 +/- 2.3
P   1.31/478.19d           H 23.5   G  0.15   U 10.8  
q 0.89169604 +/- 0.00331    Q 1.50181653 +/- 0.123
From 37 observations 2019 June 4-11; mean residual 10".08
Residuals in arcseconds: 
190604 G96  .08-  .98-    190605 I52  1.2-  3.0-    190607 I52  .75+  4.7-    
190604 G96  .62+  1.6-    190606 Z84  1.4+  2.8-    190607 I52  .07+  4.7-    
190604 G96  .80+  1.2-    190606 Z84  1.9+  2.8-    190607 I52  .59+  4.7-    
190604 I52  2.7+  1.5-    190606 Z84  2.3+  2.9-    190607 I52  .20+  5.1-    
190604 I52  2.5+  1.4-    190606 J04  3.9+  4.1-    190608 L01  1.3+  2.8-    
190604 I52  2.7+  1.8-    190606 J04  3.9+  4.2-    190608 L01  2.5+  2.8-    
190605 L01  .21+  1.3-    190606 J04  3.6+  3.9-    190609 I52  2.9+  3.5-    
190605 L01  .13+  .46-    190606 I52  .85+  4.2-    190609 I52  3.5+  3.3-    
190605 L01  1.3+  .20-    190606 I52  1.1+  3.7-    190609 I52  3.4+  2.8-    
190605 L01  1.2+  .85-    190606 I52  .66+  3.9-    190611 I52  1.7-  2.2+    
190605 I52  1.4-  3.1-    190606 711  3.1+  4.0-    190611 I52  2.6-  2.1+    
190605 I52  1.2-  2.5-    190606 711  3.1+  3.7-    
190605 I52  .91-  2.2-    190606 711 40.8- 73.2+    

Ephemerides (geocentric):
Date (UTC) HH   RA              Dec         delta   r     elong  mag " sig PA
---- -- -- --  -------------   -----------  ------ ------ -----  --- ---- ---
2019 06 19 17  03 01 37.039   -44 25 05.91  .09791 1.0005  78.1 21.9 26.0  25
2019 06 19 18  03 02 25.986   -44 25 04.83  .09821 1.0003  78.0 21.9 26.2  25
2019 06 19 19  03 03 14.637   -44 25 02.42  .09851 1.0001  77.9 21.9 26.4  25
2019 06 19 20  03 04 02.994   -44 24 58.71  .09881 1.0000  77.9 22.0 26.5  25
2019 06 19 21  03 04 51.058   -44 24 53.71  .09911 0.9998  77.8 22.0 26.7  25
2019 06 19 22  03 05 38.831   -44 24 47.45  .09941 0.9997  77.7 22.0 26.9  25
2019 06 19 23  03 06 26.314   -44 24 39.96  .09971 0.9995  77.6 22.0 27.1  25
2019 06 20 00  03 07 13.510   -44 24 31.25  .10002 0.9994  77.6 22.0 27.3  25
2019 06 20 01  03 08 00.419   -44 24 21.35  .10032 0.9992  77.5 22.0 27.5  25
2019 06 20 02  03 08 47.044   -44 24 10.27  .10062 0.9991  77.4 22.0 27.7  25
2019 06 20 03  03 09 33.385   -44 23 58.05  .10093 0.9989  77.4 22.0 27.8  25
2019 06 20 04  03 10 19.445   -44 23 44.70  .10123 0.9988  77.3 22.0 28.0  25
2019 06 20 05  03 11 05.225   -44 23 30.23  .10154 0.9986  77.2 22.0 28.2  25
2019 06 20 06  03 11 50.727   -44 23 14.68  .10185 0.9985  77.2 22.0 28.4  25
2019 06 20 07  03 12 35.952   -44 22 58.05  .10215 0.9983  77.1 22.1 28.6  25
2019 06 20 08  03 13 20.902   -44 22 40.38  .10246 0.9982  77.0 22.1 28.8  25
2019 06 20 09  03 14 05.578   -44 22 21.68  .10277 0.9980  77.0 22.1 29.0  25
2019 06 20 10  03 14 49.983   -44 22 01.96  .10308 0.9979  76.9 22.1 29.2  25
2019 06 20 11  03 15 34.117   -44 21 41.26  .10339 0.9977  76.8 22.1 29.4  25
2019 06 20 12  03 16 17.983   -44 21 19.57  .10370 0.9976  76.8 22.1 29.5  25
2019 06 20 13  03 17 01.582   -44 20 56.94  .10401 0.9974  76.7 22.1 29.7  25
2019 06 20 14  03 17 44.916   -44 20 33.36  .10432 0.9973  76.6 22.1 29.9  25
2019 06 20 15  03 18 27.985   -44 20 08.86  .10463 0.9971  76.6 22.1 30.1  25
2019 06 20 16  03 19 10.793   -44 19 43.46  .10494 0.9970  76.5 22.1 30.3  24
2019 06 20 17  03 19 53.341   -44 19 17.17  .10525 0.9968  76.5 22.1 30.5  24
2019 06 20 18  03 20 35.629   -44 18 50.01  .10556 0.9966  76.4 22.1 30.7  24
2019 06 20 19  03 21 17.661   -44 18 22.00  .10588 0.9965  76.3 22.2 30.9  24
2019 06 20 20  03 21 59.437   -44 17 53.15  .10619 0.9963  76.3 22.2 31.1  24
2019 06 20 21  03 22 40.959   -44 17 23.48  .10650 0.9962  76.2 22.2 31.3  24
2019 06 20 22  03 23 22.228   -44 16 53.01  .10682 0.9960  76.2 22.2 31.4  24
2019 06 20 23  03 24 03.248   -44 16 21.74  .10713 0.9959  76.1 22.2 31.6  24
2019 06 21 00  03 24 44.018   -44 15 49.70  .10745 0.9957  76.0 22.2 31.8  24
2019 06 21 01  03 25 24.540   -44 15 16.91  .10776 0.9956  76.0 22.2 32.0  24
2019 06 21 02  03 26 04.817   -44 14 43.36  .10808 0.9954  75.9 22.2 32.2  24
2019 06 21 03  03 26 44.850   -44 14 09.09  .10840 0.9953  75.9 22.2 32.4  24
2019 06 21 04  03 27 24.640   -44 13 34.10  .10871 0.9951  75.8 22.2 32.6  24
2019 06 21 05  03 28 04.189   -44 12 58.41  .10903 0.9950  75.7 22.2 32.8  24
2019 06 21 06  03 28 43.498   -44 12 22.03  .10935 0.9948  75.7 22.2 33.0  24
2019 06 21 07  03 29 22.570   -44 11 44.97  .10967 0.9947  75.6 22.2 33.2  24
2019 06 21 08  03 30 01.406   -44 11 07.26  .10998 0.9945  75.6 22.3 33.4  24
2019 06 21 09  03 30 40.007   -44 10 28.89  .11030 0.9944  75.5 22.3 33.6  24
2019 06 21 10  03 31 18.375   -44 09 49.90  .11062 0.9942  75.5 22.3 33.8  24
2019 06 21 11  03 31 56.512   -44 09 10.28  .11094 0.9941  75.4 22.3 34.0  24
2019 06 21 12  03 32 34.419   -44 08 30.05  .11126 0.9939  75.3 22.3 34.2  24
2019 06 21 13  03 33 12.097   -44 07 49.22  .11158 0.9938  75.3 22.3 34.3  24
2019 06 21 14  03 33 49.549   -44 07 07.81  .11190 0.9936  75.2 22.3 34.5  23
2019 06 21 15  03 34 26.775   -44 06 25.82  .11222 0.9935  75.2 22.3 34.7  23
2019 06 21 16  03 35 03.778   -44 05 43.27  .11255 0.9933  75.1 22.3 34.9  23